Location: Newark
(52.0267°N, 0.2640°W)
Time: 00:19:22
(UTC+00:00)

Starlink Launch 2 leader - Visible Passes

Search period start: 06 December 2019 00:00
Search period end: 16 December 2019 00:00
Orbit: 279 x 281 km, 53.0° (Epoch: 13 November)

Date Brightness Start Highest point End Pass type
(mag) Time Alt. Az. Time Alt. Az. Time Alt. Az.
06 Dec 5.4 05:14:07 17° ESE 05:14:07 17° ESE 05:14:47 10° ESE visible
06 Dec 4.2 06:44:13 13° WSW 06:45:42 19° SSW 06:47:35 10° SSE visible
07 Dec 5.4 05:16:05 16° ESE 05:16:05 16° ESE 05:16:41 10° ESE visible
07 Dec 4.8 06:46:19 10° WSW 06:47:28 12° SW 06:48:37 10° S visible
08 Dec 5.5 05:18:06 13° SE 05:18:06 13° SE 05:18:28 10° SE visible
